COSMOS 2251 DEB, 35453

Orbit data source: Space-Track

COSMOS 2251 DEB, 35453 is space debris in LEO originally from a launch on Wed, 16 Jun 1993 UTC launched from the Plesetsk Missile And Space Complex (PKMTR). The debris from Iridium 33, an American commercial communications satellite, has been tracked extensively since its accidental collision with the defunct Russian satellite Cosmos 2251 in 2009. This event, occurring at high speed in low Earth orbit (LEO), generated thousands of pieces of space debris, significantly increasing the risk of further collisions. The Iridium 33 debris cloud has impacted space traffic management and orbital debris mitigation strategies, making it a subject of ongoing study in space situational awareness.

Loading next visibility...
Identifier
35453, 1993-036AKX
Orbit
LEO
Country
Flag of CISCIS
Related business
Manufacturer
Unknown
Mission
Spacecraft
Bus & Motor
Unknown
Mass
Unknown
Launch date (UTC)
1993-06-16 (33 years ago)
Launch vehicle
Unknown
Launch site
Plesetsk Missile And Space Complex (PKMTR)
Object type
Payload
Rocket body
Debris
Shape & HBR
Unknown shape, 0.1 m
Radar Cross Section
Small (<0.1 m²)

Expand to show TLE details & history
Last TLE update: 2 weeks ago

TLE from 2 weeks ago
0 COSMOS 2251 DEB
1 35453U 93036AKX 26022.46040241  .00003402  00000-0  11002-2 0  9999
2 35453  74.0093 305.2346 0066718  67.8617 292.9601 14.38171430868048
Epoch: 2026-01-22T11:02Z
TLE epoch observation values (Epoch: 2026-01-22T11:02:58.768Z)
Latitude
0.00004°
Longitude
17.6765°
Altitude
748.837 km
Speed
7.49 km/s
True Right ascension
20h 20m 56s
True Declination
0° 00' 00"
Sunlit
Object was in daylight at epoch
Visualization orbit readout
Latitude
Unknown
Longitude
Unknown
Altitude
Unknown
Speed
Unknown
Apparent Right ascension
Unknown
Apparent Declination
Unknown
Sunlit
N/A
Visualization observer readout
Local Sidereal Time
15:35:08
Azimuth
Unknown
Elevation
Unknown
Doppler factor
Unknown
Orbital elements
Apogee altitude
809.809 km
Perigee altitude
714.531 km
Semi-major axis
7,140.307 km
Eccentricity
0.00667
Inclination
74.0093°
RAAN
305.2346°
Arg. of periapsis
67.8617°
True anomaly
292.25386°
Mean anomaly
292.9601°
Eccentric anomaly
292.60721°
Mean motion
3.59723 °/min
Orbital period
100.08 mins
BSTAR
0.0011002

Documentation

Showing up to 5 results
|